"Pseudo-MPEC" for CEJGYL2

Created 2026 Apr 17 11:35:06 UT using Find_Orb

Click here for an explanation of pseudo-MPECs

 
 Astrometry: 
     CEJGYL2*1C2026 04 16.30898513 34 04.760+07 54 55.04   ~4G85       VNEOCPG96
     CEJGYL2 1C2026 04 16.31413213 34 04.426+07 54 41.04   ~4G85 21.69GVNEOCPG96
     CEJGYL2 1C2026 04 16.31929213 34 04.076+07 54 26.86   ~4G85 21.56GVNEOCPG96
     CEJGYL2 1C2026 04 16.32443913 34 03.756+07 54 13.00   ~4G85 22.08GVNEOCPG96
     CEJGYL2  C2026 04 16.35441113 33 59.697+07 52 25.98   ~4G9K 20.9 GWNEOCPH01
     CEJGYL2  C2026 04 16.35727013 33 59.566+07 52 17.50   ~4G9K 20.9 GWNEOCPH01
     CEJGYL2  C2026 04 16.36962213 33 59.072+07 51 39.82   ~4G9K 21.0 GWNEOCPH01
     CEJGYL2  C2026 04 16.37495313 33 58.893+07 51 23.43   ~4G9K 21.1 GWNEOCPH01
     CEJGYL2 KB2026 04 16.97212513 36 40.61 +07 14 30.5    ~4H05 21.0 GVNEOCPL01
     CEJGYL2 KB2026 04 16.97721613 36 40.72 +07 14 08.2    ~4H05 20.6 GVNEOCPL01
     CEJGYL2 KB2026 04 16.98229713 36 40.86 +07 13 45.8    ~4H05 20.3 GVNEOCPL01
     CEJGYL2 |C2026 04 17.09705013 37 53.550+07 23 49.70   ~4H3K 20.5 GVNEOCP807
     CEJGYL2 |C2026 04 17.10751013 37 54.050+07 23 08.60   ~4H3K 20.6 GVNEOCP807
     CEJGYL2 |C2026 04 17.11796013 37 54.430+07 22 27.10   ~4H3K 20.5 GVNEOCP807
     CEJGYL2 KC2026 04 17.19173113 38 09.37 +06 58 46.4    ~4H55 20.7 GVNEOCPH21
     CEJGYL2 KC2026 04 17.19462013 38 09.52 +06 58 32.4    ~4H55 20.7 GVNEOCPH21
     CEJGYL2 KC2026 04 17.19770313 38 09.67 +06 58 17.3    ~4H55 20.6 GVNEOCPH21
     CEJGYL2 1C2026 04 17.21827813 38 31.888+06 58 06.20   ~4H5o 20.76GVNEOCPI52
     CEJGYL2 1C2026 04 17.21892313 38 31.916+06 58 03.29   ~4H5o 20.77GVNEOCPI52
     CEJGYL2 1C2026 04 17.22136913 38 32.096+06 57 51.73   ~4H5o 20.60GVNEOCPI52
     CEJGYL2 1C2026 04 17.22380013 38 32.230+06 57 40.14   ~4H5o 20.58GVNEOCPI52

Station data:
(807) Cerro Tololo Observatory, La Serena  (S30.169133 W70.805900)  Chile.
   Observer R. Holmes. 0.61-m f/6.5 astrograph + CCD.
(G96) Mt. Lemmon Survey  (N32.442729 W110.788720)  US/Arizona.  Observer E.
   J. Christensen. Measurers T. Beuden, V. F. Carvajal, D. Fay, J. B.
   Fazekas, D. C. Fuls, A. R. Gibbs, A. D. Grauer, H. Gröller, J. K. Hogan,
   R. A. Kowalski, S. M. Larson, G. J. Leonard, D. Rankin, R. L. Seaman, F.
   C. Shelly, K. W. Wierzchoś. 1.5-m reflector + 10K CCD.
(H01) Magdalena Ridge Observatory, Socorro  (N33.984833 W107.189333)  US/New
   Mexico.  Observers W. H. Ryan, E. V. Ryan. Measurer W. H. Ryan. 2.4-m
   f/8.9 reflector + CCD.
(H21) Astronomical Research Observatory, Westfield  (N39.483054 W87.968270)
   US/Illinois.  Observer R. Holmes. Measurers S. Foglia, L. Buzzi, T.
   Linder, R. Holmes. 0.40-m f/5.32 astrograph + CCD.
(I52) Steward Observatory, Mt. Lemmon Station  (N32.442570 W110.788920)
   US/Arizona. Measurers T. Beuden, V. F. Carvajal, D. Fay, J. B. Fazekas, D.
   C. Fuls, A. R. Gibbs, A. D. Grauer, H. Gröller, J. K. Hogan, R. A.
   Kowalski, S. M. Larson, G. J. Leonard, D. Rankin, R. L. Seaman, F. C.
   Shelly, K. W. Wierzchoś. 1.0-m prime focus + CCD.
(L01) Višnjan Observatory, Tičan  (N45.290897 E13.749300)  Croatia.
   Observers K. Korlević, L. Poropat. Measurer K. Korlevic. 1.0-m f/2.9
   reflector + CCD.

Orbital elements:  CEJGYL2
   Perihelion 2026 Jun 11.545828 +/- 0.0026 TT = 13:05:59.5 (JD 2461203.045828)
Epoch 2026 Apr 17.0 TT = JDT 2461147.5   Earth MOID: 0.0003      AutoNEOCP
M 315.651843525 +/- 0.011           (J2000 ecliptic)
n   0.798406610 +/- 0.00018         Peri.  241.035005 +/- 0.011
a   1.150764969 +/- 0.000173        Node    29.212949 +/- 0.0020
e   0.20206851 +/- 0.000211         Incl.    3.385461 +/- 0.0029
P   1.234/450.890d         H 30.17  G  0.15   U  7.0
q 0.918231606 +/- 0.000105    Q 1.383298332 +/- 0.00045
From 21 observations 2026 Apr. 16-17 (22.0 hr); mean residual 0".19
Residuals in arcseconds: 
260416 G96  .21+  .29-    260416 H01  .13-  .05-    260417 H21  .13-  .04-    
260416 G96  .25+  .10-    260416 L01  .39+  .34+    260417 H21  .03-  .07-    
260416 G96  .04+  .08+    260416 L01  .07-  .04+    260417 H21  .00   .20-    
260416 G96  .23+  .67+    260416 L01  .16-  .23-    260417 I52  .12+  .06-    
260416 H01  .21-  .17-    260417 807  .08-  .13-    260417 I52  .09-  .09+    
260416 H01  .24-  .05-    260417 807  .10-  .14-    260417 I52  .27+  .16+    
260416 H01  .18-  .11-    260417 807  .09-  .13+    260417 I52  .05+  .18+    

Ephemerides (geocentric):
Date (UTC) HH   RA             Dec           delta  r     elong  mag " sig PA
---- --------  ------------   ------------  ------ ------ -----  --- --------
2026 04 17 12  13 39 53.298   +06 39 32.57  .00806 1.0115 162.9 20.6 .848 128
2026 04 17 13  13 40 11.929   +06 35 10.95  .00791 1.0114 163.0 20.6 1.01 128
2026 04 17 14  13 40 31.242   +06 30 39.52  .00777 1.0113 163.0 20.5 1.19 128
2026 04 17 15  13 40 51.274   +06 25 57.71  .00763 1.0112 163.1 20.5 1.39 129
2026 04 17 16  13 41 12.068   +06 21 04.93  .00748 1.0110 163.1 20.5 1.61 129
2026 04 17 17  13 41 33.668   +06 16 00.54  .00734 1.0109 163.2 20.4 1.86 129
2026 04 17 18  13 41 56.120   +06 10 43.85  .00720 1.0108 163.3 20.4 2.14 129
2026 04 17 19  13 42 19.477   +06 05 14.10  .00705 1.0107 163.4 20.3 2.44 130
2026 04 17 20  13 42 43.795   +05 59 30.49  .00691 1.0106 163.4 20.3 2.78 130
2026 04 17 21  13 43 09.133   +05 53 32.13  .00677 1.0104 163.5 20.2 3.16 130
2026 04 17 22  13 43 35.559   +05 47 18.07  990882 1.0103 163.6 20.2 3.57 130
2026 04 17 23  13 44 03.142   +05 40 47.26  969454 1.0102 163.7 20.1 4.03 130
2026 04 18 00  13 44 31.962   +05 33 58.58  948029 1.0101 163.8 20.1 4.54 130
2026 04 18 01  13 45 02.103   +05 26 50.79  926607 1.0099 163.9 20.0 5.11 131
2026 04 18 02  13 45 33.658   +05 19 22.52  905190 1.0098 164.0 20.0 5.73 131
2026 04 18 03  13 46 06.729   +05 11 32.29  883777 1.0097 164.1 19.9 6.43 131
2026 04 18 04  13 46 41.427   +05 03 18.47  862368 1.0096 164.2 19.9 7.20 131
2026 04 18 05  13 47 17.877   +04 54 39.25  840965 1.0094 164.4 19.8 8.06 131
2026 04 18 06  13 47 56.214   +04 45 32.66  819567 1.0093 164.5 19.7 9.01 131
2026 04 18 07  13 48 36.588   +04 35 56.50  798176 1.0092 164.6 19.7 10.1 131
2026 04 18 08  13 49 19.167   +04 25 48.32  776791 1.0091 164.8 19.6 11.2 131
2026 04 18 09  13 50 04.135   +04 15 05.42  755414 1.0090 164.9 19.5 12.6 132
2026 04 18 10  13 50 51.700   +04 03 44.77  734045 1.0088 165.1 19.5 14.0 132
2026 04 18 11  13 51 42.094   +03 51 43.00  712685 1.0087 165.2 19.4 15.7 132
2026 04 18 12  13 52 35.575   +03 38 56.29  691336 1.0086 165.4 19.3 17.5 132
2026 04 18 13  13 53 32.436   +03 25 20.39  669998 1.0085 165.6 19.3 19.6 132
2026 04 18 14  13 54 33.009   +03 10 50.45  648673 1.0083 165.8 19.2 21.9 132
2026 04 18 15  13 55 37.668   +02 55 21.02  627362 1.0082 166.0 19.1 24.6 132
2026 04 18 16  13 56 46.840   +02 38 45.85  606067 1.0081 166.2 19.0 27.6 132
2026 04 18 17  13 58 01.015   +02 20 57.84  584791 1.0080 166.4 18.9 31.0 132
2026 04 18 18  13 59 20.753   +02 01 48.81  563536 1.0078 166.6 18.8 34.8 133
2026 04 18 19  14 00 46.704   +01 41 09.35  542304 1.0077 166.9 18.8 39.3 133
2026 04 18 20  14 02 19.622   +01 18 48.54  521100 1.0076 167.1 18.7 44.3 133
2026 04 18 21  14 04 00.386   +00 54 33.70  499928 1.0075 167.3 18.6 50.2 133
2026 04 18 22  14 05 50.030   +00 28 09.97  478792 1.0074 167.6 18.5 56.9 133
2026 04 18 23  14 07 49.776   -00 00 40.15  457698 1.0072 167.8 18.3 64.8 133
2026 04 19 00  14 10 01.080   -00 32 17.38  436653 1.0071 168.0 18.2 74.0 133
2026 04 19 01  14 12 25.690   -01 07 06.37  415667 1.0070 168.2 18.1 84.8 133
2026 04 19 02  14 15 05.719   -01 45 36.74  394750 1.0069 168.4 18.0 97.5 133
2026 04 19 03  14 18 03.751   -02 28 24.23  373914 1.0067 168.5 17.9  113 133
2026 04 19 04  14 21 22.971   -03 16 12.32  353177 1.0066 168.5 17.8  131 133
2026 04 19 05  14 25 07.349   -04 09 54.25  332559 1.0065 168.3 17.6  153 133
2026 04 19 06  14 29 21.896   -05 10 35.74  312087 1.0064 168.0 17.5  179 133
2026 04 19 07  14 34 13.014   -06 19 38.36  291793 1.0062 167.5 17.4  212 133
2026 04 19 08  14 39 49.003   -07 38 43.96  271724 1.0061 166.7 17.3  253 133
2026 04 19 09  14 46 20.784   -09 10 00.08  251937 1.0060 165.4 17.1  304 133
2026 04 19 10  14 54 02.977   -10 56 06.36  232511 1.0059 163.8 17.0  368 132
2026 04 19 11  15 03 15.487   -13 00 20.84  213551 1.0057 161.5 16.9  450 132